Location: Cedar Ridge
(38.0658°N, 120.2769°W)
Time: 21:44:45
(UTC+00:00)

Cosmos 1076 Rocket - Pass Details

Date: 10 September 2024
Orbit: 584 x 606 km, 82.5° (Epoch: 12 October)

Event Time Altitude Azimuth Distance (km) Brightness Sun altitude
Rises 13:02:22 0° 353° (N) 2,822 7.0 -8.0°
Reaches altitude 10° 13:04:35 10° 354° (N) 1,919 6.2 -7.5°
Maximum altitude 13:08:49 86° 80° (E) 597 3.5 -6.7°
Drops below altitude 10° 13:13:04 10° 173° (S) 1,916 6.1 -5.9°
Sets 13:15:15 0° 173° (S) 2,817 6.9 -5.5°
